Погода в Аблатуйском Боре

Россия / Забайкальский край     51°11′15″N   112°13′15″E
темп.,
°C
ветер,
м/с
пор.,
м/с
влажн.,
%
обл.,
%
осадки,
мм/ч
давл.,
гПа
погр.,
м
23 апреля, пт
пт2300:00+2св51018100 0.0 1030372
03:00+1ссв6741100 0.9 1034754
06:00−2с3775100 0.1 1037331
09:00+1св3431100 0.1 1038800
12:00+4всв443199 0.0 10371436
15:00+6всв3426100 0.0 10361773
18:00+7в3423100 0.0 10351700
21:00+3юв1128100 0.0 103610
24 апреля, сб
сб2400:00+1св1130100 0.0 103810
03:000всв1130100 0.0 103910
06:00−1св1131100 0.0 103910
09:00+3св2323100 0.0 1038299
12:00+9всв3415100 0.0 10331407
15:00+14в341599 0.0 10271992
18:00+15юв5522100 0.0 10241794
21:00+10вюв3529100 0.0 1024102
25 апреля, вс
вс2500:00+7в2231100 0.0 102418
03:00+7всв2232100 0.0 102232
06:00+6св2243100 0.0 102063
09:00+7всв2348100 0.4 1018285
12:00+11зюз243499 0.0 1014522
15:00+10з5566100 0.8 1012639
18:00+7з3586100 3.3 1012447
21:00+4зсз3794100 6.2 1013724
26 апреля, пн
пн2600:00+3зсз3791100 1.3 1012654
03:00+3зсз5977100 1.5 1010845
06:00+1зсз61172100 0.0 1010708
09:00+2зсз71062100 0.0 1011901
12:00+7сз8103812 0.0 10081495
15:00+9сз9112798 0.0 10062534
18:00+8сз10123063 0.0 10072489
21:00+3сз713446 0.0 10111012
27 апреля, вт
вт2700:00+1зсз7136213 0.0 1013941
03:000зсз815678 0.0 1013885
06:00−1сз1016638 0.0 10141034
09:00+1сз1014487 0.0 10161332
12:00+5сз10132455 0.0 10142617
15:00+6сз111423100 0.0 10123226
18:00+5сз10142694 0.0 10132964
21:00+1сз915360 0.0 10181133